This demonstration page uses our WeatherBlox Daily Observations layout. Learn more.

38.88101, -77.10428

Hourly Observations for April 10, 2018

Temp ( °F °C ) Dew Point ( °F °C ) Humidity (%) Winds ( mph kmh ) Pressure ( in mb ) Visibility ( mi km ) Precip ( " mm )
12:45 am 00:45 Cloudy with Light Rain 41 5 37 2.8 86 86 NNW 6 9 30.18 1022 6 9.65604 0 0.0254
12:52 am 00:52 Cloudy with Light Rain 41 5 37 2.8 86 86 NNW 7 11 30.19 1022 6 9.65604 0 0.0254
1:47 am 01:47 Cloudy with Light Rain 41 5 37 3 87 87 NNW 7 11 30.18 1022 9 14.48406 0 0.0254
1:52 am 01:52 Cloudy with Light Rain 41 5 37 2.8 86 86 NNW 7 11 30.19 1022 9 14.48406 0 0.0254
2:15 am 02:15 Cloudy with Light Rain 41 5 37 2.8 86 86 N 5 7 30.18 1022 8 12.87472 0 0.0254
2:52 am 02:52 Cloudy with Light Rain 40 4.4 36 2.2 86 86 NNW 6 9 30.19 1022 8 12.87472 0 0.0254
3:52 am 03:52 Cloudy 41 5 36 2.2 82 82 NNW 6 9 30.19 1022 10 16.0934 0 0.0254
4:52 am 04:52 Partly Cloudy 38 3.3 34 1.1 86 86 N 6 9 30.18 1022 9 14.48406 0 0
5:52 am 05:52 Mostly Clear 38 3.3 33 0.6 83 83 NW 7 11 30.19 1022 9 14.48406 0 0
6:52 am 06:52 Mostly Cloudy 39 3.9 33 0.6 79 79 NNW 13 20 30.21 1023 7 11.26538 0 0
7:52 am 07:52 Partly Cloudy 42 5.6 35 1.7 76 76 NNW 7 11 30.23 1024 9 14.48406 0 0
8:52 am 08:52 Partly Cloudy 44 6.7 34 1.1 68 68 NW 10 17 30.24 1024 10 16.0934 0 0
9:52 am 09:52 Partly Cloudy 46 7.8 32 0 58 58 NW 14 22 30.24 1024 10 16.0934 0 0
10:52 am 10:52 Partly Cloudy 48 8.9 30 -1.1 50 50 NW 13 20 30.24 1024 10 16.0934 0 0
11:52 am 11:52 Partly Cloudy 50 10 29 -1.7 44 44 NW 16 26 30.23 1024 10 16.0934 0 0
12:52 pm 12:52 Mostly Sunny 52 11.1 26 -3.3 37 37 N 15 24 30.22 1023 10 16.0934 0 0
1:52 pm 13:52 Mostly Sunny 53 11.7 24 -4.4 32 32 NW 13 20 30.2 1023 10 16.0934 0 0
2:52 pm 14:52 Mostly Sunny 54 12.2 23 -5 30 30 NNW 13 20 30.18 1022 10 16.0934 0 0
3:52 pm 15:52 Mostly Sunny 55 12.8 22 -5.6 28 28 NNW 12 19 30.15 1021 10 16.0934 0 0
4:52 pm 16:52 Mostly Sunny 54 12.2 21 -6.1 28 28 N 12 19 30.15 1021 10 16.0934 0 0
5:52 pm 17:52 Mostly Sunny 53 11.7 22 -5.6 30 30 N 10 17 30.14 1021 10 16.0934 0 0
6:52 pm 18:52 Mostly Sunny 52 11.1 21 -6.1 30 30 NNW 8 13 30.16 1021 10 16.0934 0 0
7:52 pm 19:52 Mostly Clear 49 9.4 20 -6.7 32 32 NNW 12 19 30.17 1022 10 16.0934 0 0
8:52 pm 20:52 Clear 49 9.4 21 -6.1 33 33 NNE 14 22 30.19 1022 10 16.0934 0 0
9:52 pm 21:52 Clear 48 8.9 22 -5.6 36 36 NNE 9 15 30.19 1023 10 16.0934 0 0
10:52 pm 22:52 Partly Cloudy 46 7.8 21 -6.1 37 37 NNE 13 20 30.21 1023 10 16.0934 0 0

Powered by AerisWeather